Tracking 30402 objects as of 12-May-2025
HD Live streaming from Space Station
objects crossing your sky now

JCSAT 18

Track JCSAT 18 now!


NORAD ID: 44868
Int'l Code: 2019-091A
Perigee: 35,793.6 km
Apogee: 35,795.1 km
Inclination: 0.0 °
Period: 1,436.1 minutes
Semi major axis: 42165 km
RCS: Unknown
Launch date: December 17, 2019
Source: Japan (JPN)
Launch site: AIR FORCE EASTERN TEST RANGE (AFETR)
Your satellite tracking list
Your tracking list is empty




NASA's NSSDC Master Catalog

Two Line Element Set (TLE):
1 44868U 19091A   25131.89226468 -.00000186  00000-0  00000-0 0  9993
2 44868   0.0120 318.6910 0000182 121.2042 261.2170  1.00269600 20067
Source of the keplerian elements: AFSPC